Flag for U.S.A. Weather past 2 weeks in Clarksville, Tennessee, U.S.A.

Now
81 °F

Passing clouds.


Feels Like: 83 °F
Forecast: 71 / 77 °F
Wind: 13 mph from South

Location: Outlaw Field

Current Time: May 24, 2015 at 7:15:00 PM

Latest Report: May 24, 2015 at 5:52 PM


Visibility: 10 mi

Pressure: 30.04 "Hg

Humidity: 58%

Dew point: 65 °F

Location of ClarksvilleLocation

Historic Weather in Clarksville — Graph

°F

Clarksville temperature yesterday

Maximum temperature yesterday: 79 °F (at 3:52 PM)
Minimum temperature yesterday: 54 °F (at 3:52 AM)
Average temperature yesterday: 66 °F

Past Weeks' High & Low Weather Summary

 TemperatureHumidityPressure
High88 °F (May 10, 3:52 PM)100% (May 19, 2:52 AM)30.37 "Hg (May 19, 2:52 AM)
Low41 °F (May 22, 5:52 AM)29% (May 13, 3:52 PM)29.91 "Hg (May 20, 5:52 PM)
Average67 °F72%30.13 "Hg
* Reported May 9 5:52 PM — May 24 5:52 PM, Clarksville, Weather by CustomWeather, © 2015

Note: Actual official high and low records may vary slightly from our data, if they occured in-between our weather recording intervals... More about our weather records

Advertising

Clarksville weather history for previous 24 hours

 ConditionsComfort  
Time TempWeatherWind HumidityBarometerVisibility
5:52 PM
Sun, May 24
81 °FPassing clouds.13 mph58%30.04 "Hg10 mi
4:52 PM83 °FSunny.15 mph55%30.04 "Hg10 mi
3:52 PM81 °FPartly sunny.16 mph58%30.07 "Hg10 mi
2:52 PM84 °FScattered clouds.13 mph53%30.10 "Hg10 mi
1:52 PM83 °FScattered clouds.12 mph53%30.12 "Hg10 mi
12:52 PM82 °FPassing clouds.16 mph53%30.15 "Hg10 mi
11:52 AM81 °FSunny.10 mph56%30.16 "Hg10 mi
10:52 AM78 °FSunny.12 mph56%30.17 "Hg10 mi
9:52 AM75 °FSunny.10 mph58%30.19 "Hg10 mi
8:52 AM70 °FPassing clouds.9 mph59%30.21 "Hg10 mi
7:52 AM67 °FSunny.8 mph63%30.21 "Hg10 mi
6:52 AM65 °FSunny.6 mph70%30.21 "Hg10 mi
5:52 AM62 °FSunny.5 mph78%30.20 "Hg10 mi
4:52 AM64 °FClear.6 mph73%30.18 "Hg10 mi
3:52 AM61 °FClear.7 mph83%30.18 "Hg10 mi
2:52 AM60 °FClear.5 mph86%30.18 "Hg10 mi
1:52 AM60 °FClear.5 mph86%30.17 "Hg10 mi
12:52 AM62 °FClear.5 mph78%30.18 "Hg10 mi
11:52 PM
Sat, May 23
63 °FClear.3 mph78%30.19 "Hg10 mi
10:52 PM64 °FClear.No wind75%30.20 "Hg10 mi
9:52 PM66 °FClear.5 mph68%30.21 "Hg10 mi
8:52 PM68 °FClear.5 mph65%30.20 "Hg10 mi
7:52 PM71 °FSunny.3 mph59%30.20 "Hg10 mi
Weather by CustomWeather, © 2015

See weather overviewHow to use our weather pages